This is the latest recevied weather packets stored in our database for station/object K5NWZ. If no packets are shown the sender has not sent any weather packets the latest 10 day(s).
| Time | Temp. | Humidity | Pressure | Rain* | Wind** | Luminosity | Snow |
|---|---|---|---|---|---|---|---|
| 1788183380 | 16.11° C | 75% | 1029.7 hPa | 0 mm | - | 60 W/m² | - |
| 1788183075 | 16.11° C | 75% | 1029.7 hPa | 0 mm | - | 48 W/m² | - |
| 1788182771 | 16.11° C | 75% | 1029.7 hPa | 0 mm | - | 43 W/m² | - |
| 1788182469 | 15.56° C | 75% | 1029.4 hPa | 0 mm | - | 36 W/m² | - |
| 1788182164 | 15.56° C | 76% | 1029.4 hPa | 0 mm | - | 32 W/m² | - |
| 1788181861 | 15.56° C | 74% | 1029.4 hPa | 0 mm | - | 28 W/m² | - |
| 1788181555 | 15.56° C | 74% | 1029 hPa | 0 mm | - | 24 W/m² | - |
| 1788181251 | 15.56° C | 74% | 1029.4 hPa | 0 mm | - | 23 W/m² | - |
| 1788180944 | 15.56° C | 74% | 1029 hPa | 0 mm | - | 21 W/m² | - |
| 1788180640 | 15.56° C | 75% | 1029 hPa | 0 mm | - | 15 W/m² | - |
| 1788180336 | 15° C | 77% | 1029 hPa | 0 mm | - | 12 W/m² | - |
| 1788180032 | 15° C | 77% | 1029 hPa | 0 mm | - | 9 W/m² | - |
| 1788179731 | 15° C | 77% | 1029 hPa | 0 mm | - | 6 W/m² | - |
| 1788179426 | 15° C | 77% | 1028.7 hPa | 0 mm | - | 4 W/m² | - |
| 1788179125 | 15.56° C | 75% | 1029 hPa | 0 mm | - | 2 W/m² | - |
| 1788178820 | 15.56° C | 74% | 1029 hPa | 0 mm | - | 1 W/m² | - |
| 1788178515 | 15.56° C | 74% | 1028.7 hPa | 0 mm | - | 0 W/m² | - |
| 1788178212 | 15.56° C | 74% | 1028.7 hPa | 0 mm | - | 0 W/m² | - |
| 1788177911 | 15° C | 74% | 1028.8 hPa | 0 mm | - | 0 W/m² | - |
| 1788177606 | 15.56° C | 74% | 1028.7 hPa | 0 mm | - | 0 W/m² | - |
| 1788177302 | 15.56° C | 74% | 1028.7 hPa | 0 mm | - | 0 W/m² | - |
| 1788176997 | 15.56° C | 73% | 1028.7 hPa | 0 mm | - | 0 W/m² | - |
| 1788176695 | 15.56° C | 74% | 1028.7 hPa | 0 mm | - | 0 W/m² | - |
| 1788176391 | 15.56° C | 74% | 1028.8 hPa | 0 mm | - | 0 W/m² | - |
| 1788176090 | 15.56° C | 74% | 1028.8 hPa | 0 mm | - | 0 W/m² | - |
* Rain latest hour (hover to see other rain measurements)
** Current wind speed in m/s (hover to see current wind gust speed)